W61601 EPGD-EGGW

Flight info

Callsign W61601
Flight time 1h 48m
Altitude 360
Route DEXIR T671 VEKON L730 VAVUN M602 BINKA L23 LEGSA/N0447F380 L23 WSN
Aircraft B738/M-V/N

Departure

Time 2026-05-01 07:25
Airport Gdańsk Lech Wałęsa Airport (EPGD)

Arrival

Time 2026-05-01 09:13
Airport London Luton Airport (EGGW)
Time Latitude Longitude Altitude Speed Heading
2026-05-01 07:23 54.37229 18.49255 497 ft 11 kts 206°
2026-05-01 07:23 54.37184 18.49201 497 ft 15 kts 232°
2026-05-01 07:24 54.37159 18.49047 497 ft 11 kts 288°
2026-05-01 07:24 54.37181 18.48960 497 ft 6 kts 294°
2026-05-01 07:24 54.37295 18.48489 497 ft 87 kts 292°
2026-05-01 07:24 54.37622 18.47075 562 ft 158 kts 290°
2026-05-01 07:25 54.38013 18.45234 1453 ft 166 kts 290°
2026-05-01 07:25 54.38431 18.43418 2521 ft 167 kts 295°
2026-05-01 07:25 54.38940 18.41510 3159 ft 185 kts 297°
2026-05-01 07:25 54.39498 18.39398 3769 ft 204 kts 297°
2026-05-01 07:26 54.40095 18.37051 4329 ft 223 kts 297°
2026-05-01 07:26 54.40720 18.34560 5154 ft 228 kts 297°
2026-05-01 07:26 54.41344 18.32046 6054 ft 232 kts 297°
2026-05-01 07:26 54.41977 18.29465 6906 ft 235 kts 297°
2026-05-01 07:27 54.42618 18.26860 7778 ft 239 kts 298°
2026-05-01 07:27 54.43139 18.24102 8570 ft 250 kts 281°
2026-05-01 07:27 54.42953 18.21113 9364 ft 264 kts 255°
2026-05-01 07:27 54.41992 18.18302 9934 ft 288 kts 231°
2026-05-01 07:28 54.40334 18.16143 10286 ft 314 kts 207°
2026-05-01 07:28 54.38206 18.14963 10789 ft 331 kts 196°
2026-05-01 07:28 54.36050 18.13259 11126 ft 353 kts 216°
2026-05-01 07:28 54.34239 18.10271 11426 ft 371 kts 235°
2026-05-01 07:29 54.33010 18.06314 11730 ft 384 kts 253°
2026-05-01 07:29 54.32353 18.01805 12102 ft 396 kts 262°
2026-05-01 07:29 54.31714 17.97209 12714 ft 408 kts 257°
2026-05-01 07:29 54.30750 17.92567 13398 ft 415 kts 253°
2026-05-01 07:30 54.29756 17.87899 14115 ft 419 kts 253°
2026-05-01 07:30 54.28761 17.83177 14785 ft 424 kts 255°
2026-05-01 07:30 54.27886 17.78340 15477 ft 426 kts 258°
2026-05-01 07:30 54.27121 17.73415 16135 ft 430 kts 259°
2026-05-01 07:31 54.26331 17.68443 16766 ft 435 kts 259°
2026-05-01 07:31 54.23836 17.53342 18582 ft 448 kts 258°
2026-05-01 07:32 54.21892 17.43099 19735 ft 459 kts 251°
2026-05-01 07:32 54.20563 17.38120 20283 ft 464 kts 248°
2026-05-01 07:33 54.17604 17.28205 21318 ft 472 kts 246°
2026-05-01 07:33 54.16104 17.23187 21808 ft 476 kts 246°
2026-05-01 07:33 54.13085 17.13052 22748 ft 482 kts 246°
2026-05-01 07:34 54.11580 17.07991 23197 ft 485 kts 246°
2026-05-01 07:34 54.08357 16.97791 24073 ft 493 kts 242°
2026-05-01 07:34 54.06512 16.92837 24503 ft 497 kts 239°
2026-05-01 07:35 54.04589 16.87917 24918 ft 500 kts 239°
2026-05-01 07:35 54.02658 16.82975 25336 ft 502 kts 239°
2026-05-01 07:35 54.00731 16.78016 25764 ft 503 kts 239°
2026-05-01 07:35 53.98799 16.73025 26081 ft 507 kts 239°
2026-05-01 07:36 53.96875 16.68054 26401 ft 510 kts 239°
2026-05-01 07:36 53.94929 16.63025 26778 ft 511 kts 239°
2026-05-01 07:36 53.92973 16.57968 27135 ft 513 kts 239°
2026-05-01 07:36 53.91015 16.52905 27517 ft 514 kts 239°
2026-05-01 07:37 53.87085 16.42825 28401 ft 511 kts 238°
2026-05-01 07:37 53.85122 16.37805 28934 ft 508 kts 238°
2026-05-01 07:37 53.83163 16.32811 29356 ft 507 kts 238°
2026-05-01 07:38 53.81210 16.27837 29774 ft 506 kts 238°
2026-05-01 07:38 53.79264 16.22888 30191 ft 505 kts 238°
2026-05-01 07:38 53.75391 16.13014 31054 ft 501 kts 239°
2026-05-01 07:39 53.73525 16.08147 31506 ft 499 kts 239°
2026-05-01 07:39 53.71595 16.03202 31898 ft 498 kts 239°
2026-05-01 07:39 53.67777 15.93544 32653 ft 496 kts 239°
2026-05-01 07:40 53.65857 15.88724 33028 ft 495 kts 239°
2026-05-01 07:40 53.63940 15.83921 33401 ft 493 kts 239°
2026-05-01 07:40 53.62023 15.79129 33735 ft 493 kts 239°
2026-05-01 07:40 53.60103 15.74332 34086 ft 492 kts 239°
2026-05-01 07:41 53.58198 15.69568 34436 ft 491 kts 239°
2026-05-01 07:41 53.56294 15.64792 34753 ft 490 kts 239°
2026-05-01 07:41 53.52598 15.55191 35375 ft 487 kts 244°
2026-05-01 07:42 53.51545 15.51862 35574 ft 485 kts 247°
2026-05-01 07:42 53.50203 15.46692 35869 ft 481 kts 253°
2026-05-01 07:42 53.49146 15.41362 36156 ft 478 kts 260°
2026-05-01 07:42 53.48680 15.35914 36417 ft 469 kts 274°
2026-05-01 07:43 53.48972 15.30494 36431 ft 462 kts 288°
2026-05-01 07:43 53.52402 15.15673 36442 ft 450 kts 299°
2026-05-01 07:44 53.57573 14.96655 36442 ft 449 kts 299°
2026-05-01 07:45 53.60150 14.87075 36442 ft 449 kts 299°
2026-05-01 07:45 53.62715 14.77467 36443 ft 449 kts 298°
2026-05-01 07:46 53.65268 14.67878 36445 ft 448 kts 298°
2026-05-01 07:47 53.69113 14.53496 36451 ft 448 kts 298°
2026-05-01 07:47 53.71656 14.43887 36456 ft 448 kts 298°
2026-05-01 07:48 53.75158 14.29242 36462 ft 453 kts 288°
2026-05-01 07:48 53.76035 14.18650 36464 ft 458 kts 276°
2026-05-01 07:49 53.76147 14.02517 36465 ft 459 kts 274°
2026-05-01 07:50 53.76180 13.91714 36464 ft 459 kts 274°
2026-05-01 07:50 53.76235 13.75530 36463 ft 460 kts 274°
2026-05-01 07:51 53.76261 13.64722 36462 ft 460 kts 274°
2026-05-01 07:52 53.76205 13.48503 36461 ft 460 kts 272°
2026-05-01 07:52 53.76086 13.37688 36461 ft 461 kts 272°
2026-05-01 07:53 53.75950 13.21524 36464 ft 460 kts 272°
2026-05-01 07:53 53.75816 13.10709 36467 ft 460 kts 272°
2026-05-01 07:55 53.75406 12.83739 36467 ft 459 kts 271°
2026-05-01 07:56 53.75041 12.56802 36467 ft 458 kts 271°
2026-05-01 07:57 53.74775 12.40678 36466 ft 457 kts 270°
2026-05-01 07:58 53.74298 12.19274 36468 ft 457 kts 270°
2026-05-01 07:59 53.73826 11.97808 36469 ft 457 kts 270°
2026-05-01 08:00 53.73091 11.65695 36477 ft 457 kts 270°
2026-05-01 08:01 53.72553 11.44258 36484 ft 457 kts 270°
2026-05-01 08:02 53.72140 11.28229 36489 ft 457 kts 270°
2026-05-01 08:03 53.71654 11.12151 36492 ft 457 kts 269°
2026-05-01 08:03 53.71149 10.96060 36495 ft 457 kts 269°
2026-05-01 08:04 53.70446 10.74696 36495 ft 456 kts 269°
2026-05-01 08:05 53.69965 10.58637 36496 ft 456 kts 269°
2026-05-01 08:06 53.69394 10.42687 36496 ft 456 kts 269°
2026-05-01 08:07 53.68242 10.21399 36496 ft 457 kts 259°
2026-05-01 08:08 53.65040 10.06189 36496 ft 460 kts 249°
2026-05-01 08:09 53.60088 9.86270 36496 ft 461 kts 249°
2026-05-01 08:09 53.57596 9.76410 36496 ft 461 kts 249°
2026-05-01 08:10 53.52561 9.56583 36494 ft 461 kts 249°
2026-05-01 08:11 53.47491 9.36753 36485 ft 462 kts 249°
2026-05-01 08:12 53.43712 9.21892 36481 ft 461 kts 248°
2026-05-01 08:13 53.39862 9.07090 36475 ft 461 kts 248°
2026-05-01 08:13 53.36007 8.92378 36473 ft 461 kts 248°
2026-05-01 08:14 53.33536 8.82477 36471 ft 459 kts 252°
2026-05-01 08:14 53.31397 8.72466 36468 ft 459 kts 251°
2026-05-01 08:15 53.28092 8.57438 36461 ft 459 kts 252°
2026-05-01 08:16 53.25914 8.47400 36460 ft 459 kts 253°
2026-05-01 08:16 53.24043 8.37235 36458 ft 458 kts 255°
2026-05-01 08:17 53.22143 8.27091 36456 ft 458 kts 254°
2026-05-01 08:17 53.20212 8.16970 36454 ft 458 kts 254°
2026-05-01 08:18 53.18307 8.06831 36451 ft 458 kts 255°
2026-05-01 08:19 53.14481 7.86581 36447 ft 458 kts 253°
2026-05-01 08:19 53.12551 7.76532 36446 ft 458 kts 253°
2026-05-01 08:20 53.10604 7.66416 36443 ft 458 kts 253°
2026-05-01 08:20 53.08678 7.56294 36437 ft 458 kts 253°
2026-05-01 08:21 53.06716 7.46208 36437 ft 458 kts 253°
2026-05-01 08:21 53.04735 7.36135 36437 ft 458 kts 253°
2026-05-01 08:22 53.02750 7.26080 36435 ft 458 kts 253°
2026-05-01 08:22 53.00739 7.16044 36431 ft 458 kts 252°
2026-05-01 08:23 52.98698 7.06084 36426 ft 458 kts 252°
2026-05-01 08:23 52.96639 6.96091 36424 ft 457 kts 252°
2026-05-01 08:24 52.94573 6.86109 36420 ft 457 kts 252°
2026-05-01 08:24 52.92567 6.76117 36417 ft 457 kts 252°
2026-05-01 08:25 52.90522 6.66145 36414 ft 457 kts 252°
2026-05-01 08:25 52.88446 6.56218 36414 ft 456 kts 251°
2026-05-01 08:26 52.86368 6.46365 36410 ft 456 kts 251°
2026-05-01 08:26 52.84267 6.36435 36409 ft 456 kts 251°
2026-05-01 08:27 52.82187 6.26534 36407 ft 456 kts 251°
2026-05-01 08:27 52.80086 6.16651 36406 ft 455 kts 251°
2026-05-01 08:28 52.77984 6.06831 36398 ft 455 kts 251°
2026-05-01 08:28 52.75879 5.96962 36395 ft 455 kts 251°
2026-05-01 08:29 52.73673 5.87170 36391 ft 455 kts 245°
2026-05-01 08:29 52.70404 5.78232 36388 ft 456 kts 232°
2026-05-01 08:30 52.67017 5.71580 36384 ft 455 kts 229°
2026-05-01 08:30 52.62832 5.63705 36378 ft 455 kts 228°
2026-05-01 08:31 52.58670 5.55925 36378 ft 455 kts 228°
2026-05-01 08:31 52.54479 5.48117 36377 ft 455 kts 228°
2026-05-01 08:32 52.50288 5.40327 36377 ft 455 kts 228°
2026-05-01 08:32 52.46097 5.32521 36375 ft 455 kts 228°
2026-05-01 08:33 52.41927 5.24783 36371 ft 455 kts 228°
2026-05-01 08:33 52.37729 5.17041 36367 ft 455 kts 228°
2026-05-01 08:34 52.33933 5.08765 36361 ft 455 kts 240°
2026-05-01 08:34 52.31431 4.99260 36356 ft 455 kts 251°
2026-05-01 08:35 52.29443 4.89446 36349 ft 455 kts 251°
2026-05-01 08:35 52.27420 4.79642 36348 ft 455 kts 251°
2026-05-01 08:36 52.25392 4.69909 36347 ft 455 kts 251°
2026-05-01 08:36 52.23350 4.60139 36343 ft 455 kts 251°
2026-05-01 08:37 52.21294 4.50385 36338 ft 455 kts 250°
2026-05-01 08:37 52.19224 4.40621 36333 ft 454 kts 250°
2026-05-01 08:38 52.17182 4.30945 36328 ft 454 kts 251°
2026-05-01 08:38 52.15158 4.21188 36325 ft 454 kts 250°
2026-05-01 08:39 52.13084 4.11467 36323 ft 454 kts 250°
2026-05-01 08:39 52.10990 4.01765 36323 ft 454 kts 250°
2026-05-01 08:40 52.07838 3.87237 36321 ft 459 kts 249°
2026-05-01 08:40 52.05727 3.77452 36321 ft 458 kts 249°
2026-05-01 08:41 52.03600 3.67705 36319 ft 457 kts 249°
2026-05-01 08:41 52.01456 3.57974 36319 ft 457 kts 249°
2026-05-01 08:42 51.98873 3.48574 36318 ft 456 kts 239°
2026-05-01 08:42 51.95387 3.40067 36319 ft 455 kts 232°
2026-05-01 08:43 51.91615 3.31854 36318 ft 454 kts 232°
2026-05-01 08:43 51.87855 3.23610 36317 ft 455 kts 233°
2026-05-01 08:44 51.85116 3.14378 36318 ft 459 kts 252°
2026-05-01 08:44 51.84064 3.04149 36315 ft 463 kts 262°
2026-05-01 08:45 51.83416 2.93789 36312 ft 463 kts 262°
2026-05-01 08:45 51.82726 2.83441 36309 ft 462 kts 262°
2026-05-01 08:46 51.82377 2.78322 36188 ft 456 kts 262°
2026-05-01 08:46 51.82127 2.73222 35629 ft 454 kts 267°
2026-05-01 08:46 51.82425 2.68134 35081 ft 455 kts 278°
2026-05-01 08:46 51.82951 2.63108 34531 ft 452 kts 277°
2026-05-01 08:47 51.83440 2.58146 33986 ft 450 kts 277°
2026-05-01 08:47 51.83929 2.53148 33434 ft 449 kts 276°
2026-05-01 08:47 51.84414 2.48170 32883 ft 447 kts 276°
2026-05-01 08:47 51.84895 2.43211 32332 ft 445 kts 276°
2026-05-01 08:48 51.85374 2.38260 31780 ft 444 kts 276°
2026-05-01 08:48 51.85848 2.33338 31230 ft 442 kts 276°
2026-05-01 08:48 51.86319 2.28430 30679 ft 440 kts 276°
2026-05-01 08:48 51.86787 2.23536 30127 ft 439 kts 276°
2026-05-01 08:49 51.87251 2.18660 29577 ft 438 kts 276°
2026-05-01 08:49 51.87711 2.13794 29025 ft 436 kts 276°
2026-05-01 08:49 51.88165 2.08997 28481 ft 435 kts 276°
2026-05-01 08:49 51.88651 2.04179 27930 ft 433 kts 276°
2026-05-01 08:50 51.89131 1.99376 27379 ft 432 kts 276°
2026-05-01 08:50 51.89603 1.94586 26829 ft 430 kts 276°
2026-05-01 08:50 51.90066 1.89820 26278 ft 428 kts 276°
2026-05-01 08:50 51.90524 1.85064 25727 ft 426 kts 276°
2026-05-01 08:51 51.90972 1.80331 25176 ft 424 kts 275°
2026-05-01 08:51 51.91131 1.75583 24623 ft 419 kts 266°
2026-05-01 08:51 51.91123 1.70928 24079 ft 417 kts 267°
2026-05-01 08:51 51.91118 1.66245 23528 ft 415 kts 267°
2026-05-01 08:52 51.91109 1.61564 22976 ft 413 kts 266°
2026-05-01 08:52 51.91096 1.56917 22424 ft 411 kts 266°
2026-05-01 08:52 51.91081 1.52304 21915 ft 408 kts 266°
2026-05-01 08:52 51.91063 1.47727 21523 ft 404 kts 266°
2026-05-01 08:53 51.91043 1.43153 21145 ft 404 kts 267°
2026-05-01 08:53 51.91022 1.38634 20770 ft 398 kts 266°
2026-05-01 08:53 51.90999 1.34169 20391 ft 392 kts 266°
2026-05-01 08:53 51.90975 1.29780 20016 ft 387 kts 266°
2026-05-01 08:54 51.90949 1.25452 19639 ft 382 kts 266°
2026-05-01 08:54 51.90922 1.21234 19268 ft 377 kts 266°
2026-05-01 08:54 51.90909 1.16952 18887 ft 373 kts 267°
2026-05-01 08:54 51.90908 1.12827 18516 ft 369 kts 267°
2026-05-01 08:55 51.90903 1.08665 18137 ft 366 kts 267°
2026-05-01 08:55 51.90892 1.04575 17762 ft 362 kts 267°
2026-05-01 08:55 51.90877 1.00545 17390 ft 359 kts 267°
2026-05-01 08:55 51.90859 0.96516 17013 ft 356 kts 266°
2026-05-01 08:56 51.90838 0.92520 16638 ft 354 kts 266°
2026-05-01 08:56 51.90814 0.88542 16262 ft 351 kts 266°
2026-05-01 08:56 51.90789 0.84605 15886 ft 349 kts 266°
2026-05-01 08:56 51.90761 0.80680 15510 ft 347 kts 266°
2026-05-01 08:57 51.90732 0.76784 15134 ft 345 kts 266°
2026-05-01 08:57 51.90702 0.72914 14759 ft 343 kts 266°
2026-05-01 08:57 51.90669 0.69057 14384 ft 341 kts 266°
2026-05-01 08:57 51.90636 0.65218 14007 ft 340 kts 266°
2026-05-01 08:58 51.90601 0.61407 13633 ft 338 kts 266°
2026-05-01 08:58 51.90566 0.57643 13260 ft 337 kts 266°
2026-05-01 08:58 51.90528 0.53808 12879 ft 335 kts 266°
2026-05-01 08:58 51.90492 0.50055 12504 ft 333 kts 266°
2026-05-01 08:59 51.90453 0.46355 12133 ft 332 kts 266°
2026-05-01 08:59 51.90415 0.42630 11758 ft 330 kts 266°
2026-05-01 08:59 51.90374 0.38923 11382 ft 328 kts 266°
2026-05-01 08:59 51.90330 0.35223 11004 ft 327 kts 265°
2026-05-01 09:00 51.90284 0.31564 10630 ft 325 kts 265°
2026-05-01 09:00 51.90239 0.27897 10253 ft 324 kts 265°
2026-05-01 09:00 51.90211 0.24250 9882 ft 324 kts 266°
2026-05-01 09:00 51.90188 0.20595 9525 ft 326 kts 266°
2026-05-01 09:01 51.90147 0.16923 9132 ft 327 kts 266°
2026-05-01 09:01 51.90100 0.13245 8755 ft 325 kts 265°
2026-05-01 09:01 51.90049 0.09590 8378 ft 323 kts 265°
2026-05-01 09:01 51.89995 0.05962 8004 ft 322 kts 265°
2026-05-01 09:02 51.89937 0.02384 7632 ft 320 kts 265°
2026-05-01 09:02 51.89878 -0.01217 7254 ft 319 kts 265°
2026-05-01 09:02 51.89818 -0.04779 6880 ft 316 kts 265°
2026-05-01 09:02 51.89758 -0.08343 6505 ft 314 kts 266°
2026-05-01 09:03 51.89698 -0.11859 6129 ft 312 kts 265°
2026-05-01 09:03 51.89637 -0.15360 5753 ft 310 kts 265°
2026-05-01 09:03 51.89576 -0.18832 5386 ft 308 kts 265°
2026-05-01 09:03 51.89516 -0.22308 5019 ft 309 kts 265°
2026-05-01 09:04 51.89359 -0.25722 4630 ft 307 kts 258°
2026-05-01 09:04 51.88905 -0.29063 4259 ft 303 kts 251°
2026-05-01 09:04 51.88281 -0.32313 3889 ft 300 kts 248°
2026-05-01 09:04 51.87653 -0.35547 3519 ft 301 kts 249°
2026-05-01 09:05 51.87070 -0.38796 3137 ft 301 kts 250°
2026-05-01 09:05 51.86511 -0.41993 3038 ft 288 kts 249°
2026-05-01 09:05 51.85994 -0.45043 2991 ft 274 kts 250°
2026-05-01 09:05 51.85505 -0.47941 2984 ft 260 kts 249°
2026-05-01 09:06 51.85015 -0.50663 2997 ft 243 kts 244°
2026-05-01 09:06 51.84262 -0.52945 2979 ft 217 kts 223°
2026-05-01 09:06 51.83141 -0.54331 3016 ft 191 kts 204°
2026-05-01 09:06 51.82013 -0.55318 3019 ft 183 kts 202°
2026-05-01 09:07 51.80880 -0.56247 2998 ft 178 kts 201°
2026-05-01 09:07 51.79789 -0.57122 2968 ft 175 kts 200°
2026-05-01 09:07 51.78667 -0.57722 2917 ft 167 kts 175°
2026-05-01 09:07 51.77504 -0.57464 2970 ft 172 kts 179°
2026-05-01 09:08 51.76444 -0.58367 2948 ft 186 kts 226°
2026-05-01 09:08 51.76116 -0.60458 2958 ft 207 kts 270°
2026-05-01 09:08 51.76802 -0.62520 2960 ft 219 kts 315°
2026-05-01 09:08 51.78200 -0.63422 2989 ft 219 kts 358°
2026-05-01 09:09 51.79600 -0.62729 3006 ft 207 kts 38°
2026-05-01 09:09 51.80675 -0.61244 3037 ft 202 kts 49°
2026-05-01 09:09 51.81703 -0.59653 3022 ft 205 kts 50°
2026-05-01 09:09 51.82707 -0.58081 3008 ft 201 kts 49°
2026-05-01 09:10 51.83673 -0.56557 2877 ft 190 kts 48°
2026-05-01 09:10 51.84460 -0.54942 2641 ft 177 kts 72°
2026-05-01 09:10 51.84725 -0.53063 2453 ft 169 kts 81°
2026-05-01 09:10 51.85000 -0.51221 2188 ft 166 kts 79°
2026-05-01 09:11 51.85274 -0.49462 1964 ft 161 kts 78°
2026-05-01 09:11 51.85581 -0.47745 1679 ft 157 kts 79°
2026-05-01 09:11 51.85837 -0.46026 1363 ft 156 kts 79°
2026-05-01 09:11 51.86110 -0.44384 1155 ft 144 kts 77°
2026-05-01 09:12 51.86386 -0.42901 992 ft 137 kts 73°
2026-05-01 09:12 51.86659 -0.41338 907 ft 150 kts 75°
2026-05-01 09:12 51.86929 -0.39756 727 ft 145 kts 75°
2026-05-01 09:12 51.87218 -0.38206 552 ft 137 kts 74°
2026-05-01 09:13 51.87439 -0.36931 534 ft 89 kts 76°
2026-05-01 09:13 51.87553 -0.36278 534 ft 43 kts 74°
2026-05-01 09:13 51.87605 -0.35975 534 ft 13 kts 73°
2026-05-01 09:13 51.87652 -0.35918 534 ft 6 kts
2026-05-01 09:14 51.87671 -0.35919 534 ft 0 kts 343°
2026-05-01 09:14 51.87702 -0.35933 534 ft 16 kts 343°
2026-05-01 09:14 51.87775 -0.36068 534 ft 16 kts 261°
2026-05-01 09:14 51.87751 -0.36224 534 ft 16 kts 254°
2026-05-01 09:15 51.87715 -0.36426 534 ft 19 kts 254°
2026-05-01 09:15 51.87684 -0.36608 534 ft 15 kts 254°
2026-05-01 09:15 51.87659 -0.36747 534 ft 11 kts 254°
2026-05-01 09:15 51.87638 -0.36896 534 ft 18 kts 277°
2026-05-01 09:16 51.87728 -0.36978 534 ft 15 kts 341°
2026-05-01 09:16 51.87877 -0.37058 534 ft 27 kts 342°
2026-05-01 09:16 51.88043 -0.37146 534 ft 23 kts 342°
2026-05-01 09:17 51.88260 -0.37285 534 ft 7 kts 277°
2026-05-01 09:17 51.88250 -0.37364 534 ft 14 kts 251°
2026-05-01 09:17 51.88176 -0.37417 534 ft 9 kts 162°
2026-05-01 09:18 51.88158 -0.37408 534 ft 0 kts 164°